Temperature
16 16 16 16 16 16 16 16 16 16 16 16 16 16 16 16 15 15 15 16 16 16 16 16 16 16 16 16 16 16 16 16 16 16 16 16 16 16 16 16 16 16 17
16 16 16 16 16 16 16 16 16 16 16 16 15 15 15 15 15 15 15 15 15 15 15 15 15 15 15 15 15 16 16 15 16 16 16 16 16 16 16 16 16 16 16
16 16 16 16 16 16 16 16 16 15 15 15 15 15 15 15 15 15 15 15 15 15 15 15 15 15 15 15 15 15 15 15 15 15 15 16 16 16 16 16 16 16 16
16 16 16 16 16 16 16 15 15 15 15 15 15 15 15 15 15 15 15 15 15 15 15 15 15 15 15 15 15 15 15 15 15 15 15 15 15 15 15 16 16 16 16
16 16 16 16 16 15 15 15 15 15 15 15 15 15 15 15 14 14 15 15 14 14 14 15 15 15 15 15 15 15 15 15 15 15 15 15 15 15 15 15 15 15 15
16 16 15 15 15 15 15 15 15 15 15 15 15 15 15 14 14 14 14 14 14 14 14 14 14 14 15 15 15 15 15 14 14 14 15 15 15 15 15 15 15 15 15
15 15 15 15 15 15 15 15 15 15 15 15 15 15 15 15 14 14 14 14 14 14 14 14 14 14 14 14 14 14 14 14 14 14 14 14 14 14 14 14 14 14 14
15 15 15 15 15 15 15 15 15 15 15 15 15 15 15 15 14 14 14 14 14 14 14 14 14 14 14 14 14 14 14 14 14 14 14 14 14 14 14 14 14 14 14
15 15 15 15 15 15 15 15 15 15 15 15 15 15 16 16 15 14 14 14 14 14 14 14 13 13 13 13 13 13 14 14 13 13 14 13 13 13 13 14 14 13 14
15 15 15 15 15 15 15 15 15 15 15 15 15 15 15 15 15 15 14 14 14 14 13 13 13 13 13 13 13 13 13 13 13 13 13 13 13 13 13 13 13 13 13
15 15 15 15 15 15 15 15 15 15 15 15 15 15 14 15 15 15 15 14 14 13 13 13 13 13 13 13 13 13 13 13 13 13 13 13 13 13 13 13 13 13 13
15 15 15 15 15 15 15 15 15 15 14 14 14 15 15 15 15 15 15 14 14 13 13 13 13 13 13 13 13 13 13 13 13 13 13 13 13 13 13 13 13 13 13
15 15 15 15 15 15 15 15 14 14 14 14 14 14 14 14 14 14 15 15 14 13 13 13 13 13 12 12 12 12 13 13 13 13 13 13 13 13 13 13 12 12 12
15 15 15 15 15 15 15 14 14 14 14 14 14 14 14 14 14 14 14 14 14 14 13 13 12 12 12 12 12 12 12 12 12 13 12 12 12 12 12 12 12 12 12
15 15 15 15 15 15 15 14 14 14 14 14 14 14 14 14 14 14 14 14 14 14 14 12 12 12 12 12 12 12 12 12 12 12 12 12 12 12 12 12 12 12 12
15 15 15 15 15 15 14 14 14 14 14 14 14 14 14 14 14 14 13 13 13 13 13 13 12 12 12 12 12 11 11 12 12 12 12 12 12 12 12 12 12 12 12
15 15 15 15 15 14 14 14 14 14 14 14 14 14 14 14 13 13 13 13 13 13 13 13 12 11 11 11 11 11 11 11 11 11 11 11 11 11 11 11 11 11 11
15 15 14 14 14 14 14 14 14 14 14 13 13 13 13 13 13 13 13 13 13 13 12 12 12 11 11 11 11 11 11 11 11 11 11 11 11 11 11 11 11 11 11
15 15 14 14 14 14 14 14 14 14 13 13 13 13 13 13 13 13 13 13 12 12 12 12 12 11 11 11 11 11 10 10 10 10 10 10 11 11 10 10 10 10 10
14 14 14 14 14 14 14 14 14 14 13 13 13 13 13 13 13 12 12 12 12 12 12 11 11 11 11 10 10 10 10 10 10 10 10 10 10 10 10 10 10 10 10
14 14 14 14 14 14 14 14 13 13 13 13 13 13 13 13 13 13 12 12 12 12 11 11 11 10 10 10 10 10 10 10 10 10 10 10 9 9 9 9 9 10 9
14 14 14 14 14 14 14 14 13 13 13 13 13 12 12 12 12 12 12 12 12 11 11 11 10 10 10 10 10 9 9 9 9 9 9 9 9 9 9 9 9 9 9
14 14 14 14 14 14 14 13 13 13 13 13 12 12 12 12 12 12 12 12 12 11 11 10 10 10 9 9 9 9 9 9 9 9 9 9 9 8 8 9 9 9 8
14 14 14 14 14 13 13 13 13 13 13 12 12 12 12 12 11 11 11 11 11 11 11 10 10 9 9 9 9 9 8 8 8 8 8 8 8 8 8 8 8 8 8
14 14 13 13 13 13 13 13 13 12 12 12 12 12 11 11 11 11 11 10 10 10 10 10 10 10 10 9 9 9 8 8 8 8 7 7 7 7 7 8 8 7 7
14 13 13 13 13 13 13 13 12 12 12 12 11 11 11 11 11 11 10 10 10 10 9 9 9 9 9 9 9 8 8 7 7 7 7 7 7 6 7 7 7 7 7
Wind_Speed
3 4 4 3 3 4 3 3 3 4 4 5 6 6 6 7 7 7 8 11 11 11 10 9 9 8 7 6 6 6 5 5 5 5 5 5 5 6 6 6 6 6 6
3 3 3 3 3 3 3 2 4 4 4 4 5 5 5 6 7 6 6 8 10 11 11 11 10 10 9 8 7 7 6 6 6 6 6 6 6 6 6 6 6 6 6
3 3 2 3 3 3 3 3 4 4 4 4 4 4 5 5 6 7 7 6 7 10 11 11 10 10 10 9 8 8 8 7 7 7 7 7 7 7 7 6 7 7 7
3 3 2 2 2 2 3 3 3 3 4 3 3 3 4 4 5 6 6 6 6 6 9 11 11 12 11 11 10 9 8 8 8 8 7 7 7 8 8 7 8 8 8
3 3 3 2 3 3 2 3 3 3 4 3 3 3 4 4 4 5 6 7 7 7 7 9 10 12 13 12 12 11 9 8 8 8 7 7 8 8 8 8 8 8 8
3 3 3 3 3 3 2 2 4 3 3 2 3 4 4 4 4 5 5 6 6 7 8 7 7 9 12 13 13 11 10 9 8 8 8 8 8 8 8 8 9 9 8
3 3 2 2 2 2 2 3 3 4 3 2 2 3 4 4 4 3 4 4 5 6 7 7 7 7 7 10 12 11 10 9 9 8 8 7 7 7 7 7 8 8 8
3 2 2 2 2 2 2 3 2 2 2 1 0 1 2 3 2 3 3 3 4 4 5 7 7 7 7 7 10 11 11 10 9 9 8 7 7 7 6 7 7 7 7
2 2 2 2 2 2 2 2 2 2 1 1 2 2 1 1 2 2 3 3 3 3 4 5 6 7 7 7 7 10 11 10 9 9 9 8 8 8 8 7 7 7 7
3 2 2 2 2 2 3 2 2 1 1 1 1 2 2 2 1 1 2 3 3 3 4 4 5 6 7 7 8 10 10 10 10 9 9 9 9 8 8 7 7 6 7
3 3 3 2 2 2 2 2 1 0 1 1 0 1 1 1 1 1 1 1 2 3 3 4 4 5 6 7 7 9 10 10 9 9 10 10 9 9 8 7 7 7 7
3 3 3 2 2 2 2 2 1 1 0 1 1 0 1 1 1 1 1 1 1 2 3 3 3 4 5 5 7 8 9 9 9 9 9 9 9 9 9 9 8 8 8
3 3 3 2 2 2 2 2 2 1 1 1 1 1 1 2 2 2 1 1 1 1 1 2 3 3 3 4 4 5 7 8 8 8 8 8 9 9 9 9 9 9 9
3 3 3 2 2 2 2 2 1 1 1 1 2 2 1 2 2 1 2 2 1 0 1 2 2 3 3 3 4 2 5 7 7 7 8 8 8 8 8 9 9 9 9
3 3 3 3 3 3 2 2 2 2 2 2 2 2 1 2 1 2 1 2 2 2 1 2 2 3 3 3 3 3 5 7 7 7 7 8 8 8 8 8 9 9 9
4 4 4 4 3 3 3 3 2 2 2 2 2 2 2 2 2 2 2 2 2 2 2 2 2 3 4 4 4 4 4 3 6 6 7 8 8 8 8 8 9 9 9
4 4 4 4 3 3 4 4 3 3 3 3 2 2 2 2 1 1 2 2 2 2 1 1 2 3 3 3 3 4 3 3 5 7 7 8 9 8 8 7 8 9 9
5 4 4 4 4 3 3 4 4 3 3 3 2 2 2 2 2 2 2 2 2 2 1 2 2 2 3 4 4 3 3 4 4 6 6 7 7 7 6 6 7 7 8
5 5 5 4 4 4 4 4 4 3 3 2 2 2 2 2 2 2 2 2 2 2 1 1 2 2 2 3 3 3 3 4 4 4 4 4 6 6 6 6 6 6 7
6 5 5 5 4 4 4 4 4 4 3 3 3 3 2 3 2 2 2 2 2 2 1 1 1 1 2 2 3 3 3 3 4 4 4 4 3 3 3 4 5 6 6
5 5 5 5 4 3 3 3 4 4 4 3 3 3 4 5 7 5 3 3 2 1 1 1 2 2 2 2 3 3 4 4 3 4 4 4 3 3 2 3 4 5 6
6 5 5 5 4 3 5 2 2 4 3 3 3 3 4 4 5 5 5 6 6 3 2 2 2 2 3 3 3 3 4 4 4 3 5 4 3 3 3 4 5 5 5
6 6 5 5 5 5 6 4 2 2 3 2 2 2 2 2 1 3 4 5 4 4 4 3 3 3 4 4 4 4 4 4 4 4 5 4 3 4 3 3 4 4 5
6 5 5 5 5 5 7 6 4 3 3 3 2 2 2 2 2 1 1 2 2 3 3 2 2 3 4 4 4 4 4 4 4 2 3 4 4 5 5 3 1 3 4
6 5 5 5 5 5 7 6 4 3 3 3 3 2 1 2 4 2 0 1 1 2 5 3 4 4 5 5 5 3 4 4 4 3 2 4 5 6 5 4 1 2 4
6 5 5 4 4 4 6 6 5 3 4 3 3 3 4 2 3 2 1 0 1 1 1 0 0 1 1 1 2 3 4 4 4 3 2 4 5 5 4 3 4 5 5
Wind_Direction
103 105 101 93 77 79 95 91 93 88 81 71 64 65 64 61 62 60 66 58 47 40 39 42 42 39 44 46 52 55 60 60 58 57 56 49 46 42 37 35 32 25 22
102 102 99 87 76 74 80 97 93 92 83 80 72 66 61 61 59 61 60 69 60 46 40 39 40 42 45 46 51 58 61 60 57 56 54 46 41 38 34 30 28 25 21
96 92 87 96 91 93 105 96 93 96 99 96 85 73 67 56 57 55 53 51 60 61 51 45 41 43 48 47 51 56 59 62 63 60 54 47 40 36 31 32 30 26 22
97 89 86 93 99 103 106 105 106 105 100 91 82 77 78 70 61 55 51 50 43 47 64 57 47 45 45 46 47 51 54 57 57 57 53 49 43 37 33 34 33 27 26
104 103 88 101 120 113 106 112 105 102 99 87 85 78 73 68 61 54 47 45 43 40 53 70 64 52 46 44 43 45 49 53 54 52 51 48 44 41 37 33 34 32 29
105 114 125 125 113 112 113 116 109 97 102 108 95 84 75 72 63 52 45 45 39 42 44 47 57 63 58 49 41 41 45 50 49 49 50 47 44 43 40 32 31 31 28
106 109 122 114 113 112 123 129 121 122 118 114 113 108 97 78 69 60 49 45 43 41 44 46 43 40 57 61 46 41 42 43 43 42 43 42 41 41 38 35 32 32 29
112 114 121 125 131 121 124 122 136 130 111 93 309 175 144 124 81 60 59 45 34 44 41 39 42 45 38 42 53 46 37 35 40 41 40 38 34 32 31 33 31 32 31
112 112 103 123 126 133 123 134 147 150 126 79 5 340 347 57 91 75 53 47 32 25 33 37 38 41 41 39 41 46 37 31 32 36 36 35 31 31 30 31 29 29 33
117 116 112 122 129 121 133 150 143 137 150 139 88 10 8 21 340 100 88 55 41 31 28 30 34 37 40 41 48 43 37 33 31 30 29 30 30 30 28 25 26 30 33
119 123 119 121 121 124 129 126 135 159 201 288 355 60 51 26 301 336 27 36 55 44 35 35 39 36 37 38 39 42 37 37 32 29 27 27 27 27 26 25 26 28 27
127 124 126 125 122 120 121 121 127 123 51 12 336 8 344 341 349 357 354 39 46 50 40 38 34 36 35 41 43 43 40 38 34 30 27 26 25 25 25 26 28 27 25
141 132 133 134 120 111 112 118 123 108 112 71 16 27 15 10 352 342 338 356 22 52 52 47 36 27 24 31 40 39 48 37 33 32 30 28 26 26 27 27 27 26 25
145 135 138 131 121 117 120 113 117 111 109 94 72 54 36 24 7 349 342 327 319 118 86 55 32 23 18 24 34 354 51 43 31 32 32 33 34 35 34 31 26 24 23
152 146 144 134 125 122 116 121 111 111 95 76 73 70 48 42 8 358 351 330 319 322 33 50 29 24 21 37 21 25 43 48 32 30 32 34 35 37 38 36 33 28 24
156 154 146 141 135 128 124 119 114 98 109 91 66 62 51 41 29 12 357 345 330 324 339 27 27 32 31 40 44 32 45 66 48 41 39 37 37 39 44 42 35 31 28
160 159 151 147 141 139 135 130 125 123 125 119 109 89 78 49 45 35 19 4 360 349 344 21 36 33 35 32 38 22 23 24 57 57 44 41 42 44 46 40 35 32 29
165 164 154 147 139 138 140 136 129 127 122 115 107 90 79 78 52 27 16 14 12 359 341 2 22 28 19 24 19 14 21 24 27 57 47 40 36 36 36 33 32 30 29
165 166 158 152 148 145 141 136 130 126 120 111 96 85 70 72 72 54 30 25 19 22 9 343 19 24 7 17 4 1 13 8 2 40 45 46 35 32 30 26 24 24 22
166 164 156 153 150 150 148 143 136 129 118 105 90 80 66 63 51 47 44 29 20 26 24 16 23 25 10 352 334 344 350 354 352 360 16 16 23 30 31 23 22 17 12
164 159 152 148 142 145 144 147 142 136 128 114 101 90 73 61 41 30 27 25 22 21 26 11 8 14 8 356 345 336 334 332 345 353 342 349 342 343 3 28 23 10 3
161 155 152 146 141 137 110 102 160 145 138 129 120 110 110 107 100 83 58 42 23 14 5 10 356 355 349 347 339 324 327 325 327 348 328 328 332 331 347 2 22 11 359
161 159 156 151 148 131 130 137 158 158 140 128 127 124 106 95 135 120 121 131 81 43 358 344 356 353 344 343 328 320 326 321 321 337 323 314 322 320 327 8 26 0 352
161 164 161 158 146 138 140 146 164 169 142 134 135 132 131 118 71 40 98 81 61 56 31 4 359 1 359 348 330 316 310 303 305 334 323 306 316 314 316 312 59 353 339
163 167 165 162 159 153 150 159 183 154 151 144 131 105 106 111 77 348 66 92 77 74 79 59 25 22 20 7 340 317 320 312 314 319 332 308 313 314 300 288 264 260 292
165 163 160 168 168 161 146 166 201 177 170 157 144 126 80 72 89 330 291 358 358 20 4 53 297 248 314 17 333 316 318 309 312 312 347 315 309 314 300 289 302 299 291
Height
1569 1569 1569 1569 1570 1570 1569 1569 1570 1569 1569 1569 1569 1569 1568 1568 1567 1566 1564 1563 1562 1560 1559 1558 1557 1556 1556 1555 1555 1554 1554 1554 1553 1553 1552 1552 1552 1551 1551 1550 1550 1549 1548
1570 1570 1571 1570 1571 1571 1570 1570 1571 1570 1570 1570 1570 1569 1569 1569 1568 1567 1566 1564 1562 1560 1559 1558 1557 1556 1556 1555 1555 1554 1554 1553 1553 1553 1552 1552 1551 1551 1550 1550 1549 1548 1548
1571 1571 1572 1571 1571 1571 1571 1571 1571 1571 1571 1571 1571 1570 1570 1569 1569 1568 1567 1565 1563 1561 1559 1558 1557 1557 1556 1556 1555 1554 1554 1553 1553 1553 1552 1552 1551 1551 1550 1549 1549 1548 1547
1572 1572 1572 1572 1572 1572 1572 1572 1572 1572 1572 1572 1572 1571 1571 1570 1570 1569 1568 1566 1564 1562 1560 1559 1558 1558 1557 1556 1555 1555 1554 1553 1553 1553 1552 1552 1551 1551 1550 1549 1548 1547 1547
1572 1572 1572 1572 1573 1573 1573 1573 1573 1573 1573 1573 1573 1572 1572 1571 1570 1570 1569 1568 1566 1564 1562 1561 1560 1559 1558 1557 1556 1555 1554 1553 1553 1553 1552 1551 1551 1550 1549 1549 1548 1547 1546
1572 1573 1573 1573 1574 1574 1573 1574 1573 1573 1573 1573 1573 1573 1573 1572 1571 1571 1570 1568 1567 1565 1564 1563 1562 1560 1559 1557 1556 1555 1554 1554 1553 1553 1552 1551 1550 1550 1549 1548 1547 1547 1546
1572 1573 1574 1574 1574 1574 1574 1574 1574 1574 1574 1574 1574 1574 1573 1573 1572 1571 1571 1569 1568 1566 1565 1564 1563 1561 1560 1558 1557 1556 1555 1554 1553 1552 1552 1551 1550 1549 1548 1547 1546 1546 1545
1573 1573 1574 1574 1574 1574 1574 1574 1574 1575 1575 1575 1575 1574 1574 1575 1573 1572 1571 1570 1569 1568 1567 1565 1564 1562 1561 1560 1558 1556 1555 1554 1553 1552 1552 1551 1550 1549 1548 1547 1546 1545 1545
1572 1573 1574 1574 1574 1575 1575 1575 1575 1575 1575 1575 1575 1575 1575 1574 1574 1574 1572 1571 1570 1569 1568 1566 1565 1564 1562 1561 1559 1557 1556 1555 1554 1553 1552 1551 1550 1548 1548 1546 1546 1545 1544
1572 1573 1574 1574 1575 1575 1575 1575 1576 1575 1575 1575 1575 1574 1575 1574 1574 1574 1573 1572 1571 1569 1568 1567 1566 1564 1563 1561 1559 1558 1556 1555 1554 1553 1552 1550 1549 1548 1547 1546 1545 1544 1543
1572 1573 1574 1574 1575 1575 1575 1575 1576 1575 1575 1575 1575 1575 1574 1574 1574 1574 1573 1573 1572 1570 1568 1567 1566 1564 1563 1561 1559 1558 1557 1555 1554 1553 1551 1550 1549 1548 1546 1545 1544 1543 1542
1572 1573 1574 1574 1575 1575 1576 1575 1575 1575 1575 1575 1575 1575 1575 1575 1574 1574 1573 1572 1571 1570 1568 1567 1566 1564 1562 1561 1559 1558 1556 1555 1554 1552 1551 1549 1548 1547 1546 1545 1544 1543 1542
1573 1573 1574 1574 1575 1575 1575 1575 1575 1575 1575 1575 1575 1575 1575 1574 1574 1574 1573 1572 1571 1570 1568 1567 1565 1563 1561 1560 1558 1557 1555 1554 1553 1552 1550 1549 1547 1546 1545 1544 1543 1542 1541
1572 1572 1573 1574 1574 1574 1575 1575 1575 1575 1575 1575 1575 1574 1574 1574 1574 1573 1573 1572 1571 1570 1569 1567 1565 1562 1560 1557 1556 1555 1555 1554 1553 1551 1550 1548 1546 1545 1544 1543 1542 1541 1540
1571 1572 1573 1573 1574 1574 1574 1575 1575 1575 1575 1575 1575 1574 1574 1574 1573 1573 1572 1572 1572 1570 1569 1567 1565 1562 1559 1555 1554 1555 1554 1554 1553 1551 1549 1547 1544 1543 1542 1542 1541 1540 1539
1570 1571 1572 1573 1573 1573 1574 1574 1574 1574 1574 1574 1574 1574 1574 1573 1573 1572 1571 1571 1570 1570 1568 1567 1564 1562 1559 1556 1555 1555 1554 1554 1552 1551 1548 1545 1542 1540 1540 1541 1540 1539 1538
1569 1571 1571 1572 1573 1573 1573 1573 1573 1574 1574 1574 1574 1574 1573 1573 1572 1572 1571 1570 1570 1569 1568 1567 1565 1562 1560 1558 1557 1556 1556 1555 1553 1550 1548 1545 1542 1540 1540 1540 1540 1538 1537
1569 1570 1571 1571 1572 1572 1573 1573 1573 1573 1574 1574 1574 1574 1573 1572 1572 1571 1570 1570 1569 1568 1568 1566 1565 1563 1561 1559 1558 1557 1556 1555 1553 1550 1548 1546 1544 1543 1541 1540 1539 1538 1536
1568 1569 1570 1571 1571 1572 1572 1573 1573 1573 1574 1574 1574 1573 1573 1572 1572 1571 1570 1570 1569 1568 1567 1566 1565 1563 1561 1560 1558 1557 1556 1554 1553 1551 1549 1547 1545 1543 1542 1540 1539 1537 1535
1567 1569 1569 1570 1571 1571 1572 1572 1573 1573 1573 1573 1573 1573 1573 1572 1572 1571 1570 1569 1568 1568 1567 1566 1565 1563 1561 1560 1559 1557 1556 1554 1552 1550 1548 1547 1545 1543 1541 1539 1538 1536 1534
1566 1567 1568 1569 1570 1570 1571 1571 1572 1572 1573 1573 1573 1572 1572 1571 1571 1570 1570 1569 1568 1567 1567 1566 1565 1563 1562 1560 1558 1557 1555 1554 1552 1550 1548 1546 1544 1543 1541 1539 1536 1535 1533
1565 1566 1567 1568 1569 1569 1570 1570 1571 1571 1572 1572 1572 1572 1571 1570 1570 1569 1569 1568 1567 1567 1566 1565 1564 1563 1562 1560 1557 1556 1555 1553 1551 1549 1547 1545 1544 1542 1540 1538 1535 1533 1532
1563 1564 1565 1566 1567 1568 1569 1569 1570 1570 1570 1571 1571 1571 1571 1570 1570 1569 1568 1567 1566 1565 1565 1565 1564 1562 1561 1559 1557 1555 1553 1552 1550 1548 1546 1544 1543 1541 1538 1536 1534 1532 1530
1561 1562 1564 1565 1566 1567 1568 1568 1569 1569 1569 1569 1570 1570 1570 1569 1569 1568 1568 1567 1566 1564 1563 1563 1562 1560 1559 1557 1556 1554 1552 1550 1548 1546 1544 1543 1541 1539 1537 1534 1532 1530 1528
1559 1561 1562 1563 1564 1565 1566 1567 1568 1568 1568 1568 1568 1568 1568 1568 1567 1567 1567 1566 1565 1563 1562 1561 1560 1558 1557 1555 1554 1552 1550 1549 1547 1545 1543 1541 1539 1536 1534 1532 1530 1527 1525
1557 1559 1560 1561 1563 1564 1565 1566 1566 1567 1567 1567 1567 1567 1567 1566 1566 1566 1565 1565 1564 1563 1561 1560 1558 1557 1556 1554 1552 1550 1549 1547 1545 1544 1541 1539 1537 1535 1532 1530 1528 1526 1523